Regional Weather Roundup
Issued by NWS Little Rock, AR

Home | Current Version | Previous Version | Text Only | Print | Product List | Glossary Off
Versions: 1 2 3 4 5 6 7 8 9 10 11 12 13 14 15 16 17 18 19 20 21 22 23 24 25 26 27 28 29 30 31 32 33 34 35 36 37 38 39 40 41 42 43 44 45 46 47 48 49 50

000
ASUS44 KLZK 310305
RWRLZK

WEATHER ROUNDUP FOR ARKANSAS
NATIONAL WEATHER SERVICE LITTLE ROCK AR
1000 PM CDT MON MAY 30 2016

NOTE: "FAIR" INDICATES FEW OR NO CLOUDS BELOW 12,000 FEET WITH NO
SIGNIFICANT WEATHER AND/OR OBSTRUCTIONS TO VISIBILITY.

ARZ001-003-010-029-310400-
NORTHWEST ARKANSAS

CITY           SKY/WX    TMP DP  RH WIND       PRES   REMARKS
FAYETTEVILLE   CLOUDY    66  66 100 CALM      29.98S
FORT SMITH     CLOUDY    71  67  87 E5        29.95R
HARRISON       CLOUDY    67  66  97 E5        30.01F
BENTONVILLE    CLOUDY    66  61  82 CALM      29.99R
ROGERS           N/A     66  64  93 E8        29.99F
SILOAM SPGS    CLOUDY    66  57  72 E5        29.98F
HIGHFILL       LGT RAIN  67  65  93 E6        29.98
$$

ARZ004-005-016-310400-
NORTH CENTRAL ARKANSAS

CITY           SKY/WX    TMP DP  RH WIND       PRES   REMARKS
BATESVILLE     CLOUDY    66  64  94 SW9       30.02S
FLIPPIN        MOCLDY   N/A N/A N/A CALM      29.98R
MTN HOME       CLOUDY    66  65  96 E5        29.99F
$$

ARZ040-041-310400-
WEST CENTRAL ARKANSAS

CITY           SKY/WX    TMP DP  RH WIND       PRES   REMARKS
MENA           CLOUDY    72  70  94 CALM      29.98R
MOUNT IDA      CLEAR     66  64  93 CALM      29.96R
$$

ARZ009-017-025-026-028-310400-
NORTHEAST ARKANSAS

CITY           SKY/WX    TMP DP  RH WIND       PRES   REMARKS
CORNING          N/A     73  68  83 NW6       29.99R
JONESBORO      MOCLDY    76  69  79 W6        29.97R
NEWPORT        LGT RAIN  69  69 100 SW17      30.03R
WALNUT RIDGE   CLOUDY    72  64  78 NW13      29.99R
BLYTHEVILLE    CLOUDY    79  64  60 E3        29.98R
$$

ARZ022-023-033-042-044-310400-
CENTRAL ARKANSAS

CITY           SKY/WX    TMP DP  RH WIND       PRES   REMARKS
LITTLE ROCK    LGT RAIN  69  65  86 E9        29.97F
N LITTLE ROCK    N/A     65  64  95 E8        29.95S
SEARCY         CLOUDY    66  66 100 E7        30.04F
HOT SPRINGS    PTCLDY    67  64  90 E5        29.98S
RUSSELLVILLE   CLOUDY    71  66  84 CALM      29.97R
CLINTON        LGT RAIN  70  68  94 CALM      30.02R
$$

ARZ036-310400-
EAST ARKANSAS

CITY           SKY/WX    TMP DP  RH WIND       PRES   REMARKS
WEST MEMPHIS   CLOUDY    75  68  78 NE3       29.96R
$$

ARZ050-053-066-070-073-310400-
SOUTHWEST ARKANSAS

CITY           SKY/WX    TMP DP  RH WIND       PRES   REMARKS
ARKADELPHIA    FAIR      67  67 100 CALM      29.98R
CAMDEN         CLOUDY    68  64  88 NE6       29.97R
TEXARKANA      HVY RAIN  70  67  90 CALM      29.95R FOG
EL DORADO      CLOUDY    71  70  96 NE3       29.96R
DE QUEEN       CLOUDY    73  68  84 E5        29.93R
$$

ARZ056-057-069-310400-
SOUTHEAST ARKANSAS

CITY           SKY/WX    TMP DP  RH WIND       PRES   REMARKS
STUTTGART      CLOUDY    70  63  78 E7        30.01F
MONTICELLO     CLOUDY    70  65  84 NE5       29.97S

$$





USA.gov is the U.S. government's official web portal to all federal, state and local government web resources and services.